| time (UTC) | temp F | wind direction | speed knots | gust knots | rain 1hr in | rain 24hr in | rain mn in | humidity % | barometer mb |
| 20260505052053 | 75 | 69 | 4.3 | 9.6 | 0.00 | 0.00 | 0.00 | 71 | 1015.3 |
| 20260505040553 | 75 | 85 | 5.2 | 11.3 | 0.00 | 0.00 | 0.00 | 71 | 1015.6 |
| 20260505035547 | 75 | 69 | 5.2 | 13.0 | 0.00 | 0.00 | 0.00 | 71 | 1015.7 |
| 20260505034539 | 75 | 100 | 6.1 | 13.0 | 0.00 | 0.00 | 0.00 | 71 | 1015.6 |
| 20260505033503 | 75 | 71 | 6.1 | 12.2 | 0.00 | 0.00 | 0.00 | 71 | 1015.7 |
| 20260505030133 | 75 | 98 | 6.1 | 14.8 | 0.00 | 0.00 | 0.00 | 72 | 1015.9 |
| 20260505025122 | 75 | 103 | 6.1 | 14.8 | 0.00 | 0.00 | 0.00 | 72 | 1016.0 |
| 20260505024053 | 75 | 68 | 5.2 | 11.3 | 0.00 | 0.00 | 0.00 | 72 | 1015.9 |
| 20260505023108 | 75 | 51 | 5.2 | 11.3 | 0.00 | 0.00 | 0.00 | 72 | 1015.9 |
| 20260505021010 | 75 | 87 | 6.1 | 13.0 | 0.00 | 0.00 | 0.00 | 71 | 1015.9 |
| 20260505015947 | 75 | 108 | 6.1 | 12.2 | 0.00 | 0.00 | 0.00 | 71 | 1015.8 |
| 20260505014955 | 75 | 96 | 6.1 | 11.3 | 0.00 | 0.00 | 0.00 | 71 | 1015.8 |
| 20260505013918 | 75 | 88 | 5.2 | 10.4 | 0.00 | 0.00 | 0.00 | 71 | 1015.8 |
| 20260505012931 | 75 | 69 | 4.3 | 10.4 | 0.00 | 0.00 | 0.00 | 71 | 1015.9 |
| 20260505011909 | 75 | 32 | 5.2 | 10.4 | 0.00 | 0.00 | 0.00 | 70 | 1015.9 |
| 20260505004542 | 75 | 84 | 5.2 | 12.2 | 0.00 | 0.00 | 0.00 | 70 | 1015.1 |
| 20260505003556 | 75 | 33 | 5.2 | 10.4 | 0.00 | 0.00 | 0.00 | 70 | 1015.2 |
| 20260505002525 | 75 | 77 | 4.3 | 10.4 | 0.00 | 0.00 | 0.00 | 70 | 1015.3 |
| 20260505001524 | 75 | 84 | 6.1 | 12.2 | 0.00 | 0.00 | 0.00 | 70 | 1015.2 |
| 20260505000516 | 75 | 69 | 5.2 | 12.2 | 0.00 | 0.00 | 0.00 | 70 | 1015.0 |
| 20260504235536 | 75 | 80 | 5.2 | 13.9 | 0.00 | 0.00 | 0.00 | 69 | 1014.9 |
| 20260504234527 | 75 | 45 | 6.1 | 13.9 | 0.00 | 0.00 | 0.00 | 70 | 1014.8 |
| 20260504233531 | 75 | 40 | 6.1 | 12.2 | 0.00 | 0.00 | 0.00 | 70 | 1014.7 |
| 20260504232503 | 75 | 94 | 5.2 | 13.0 | 0.00 | 0.00 | 0.00 | 70 | 1014.9 |
| 20260504231522 | 75 | 80 | 5.2 | 13.0 | 0.00 | 0.00 | 0.00 | 69 | 1014.8 |
| 20260504230522 | 75 | 67 | 6.1 | 12.2 | 0.00 | 0.00 | 0.00 | 70 | 1014.9 |
| 20260504225510 | 75 | 94 | 6.1 | 12.2 | 0.00 | 0.00 | 0.00 | 70 | 1014.9 |
| 20260504224442 | 75 | 98 | 6.1 | 12.2 | 0.00 | 0.00 | 0.00 | 69 | 1014.8 |
| 20260504223427 | 75 | 61 | 5.2 | 12.2 | 0.00 | 0.00 | 0.00 | 69 | 1014.7 |
| 20260504222412 | 76 | 68 | 6.1 | 13.0 | 0.00 | 0.00 | 0.00 | 68 | 1014.7 |
| 20260504221350 | 76 | 94 | 6.1 | 13.9 | 0.00 | 0.00 | 0.00 | 68 | 1014.7 |
| 20260504220402 | 76 | 77 | 5.2 | 14.8 | 0.00 | 0.00 | 0.00 | 68 | 1014.7 |
| 20260504215346 | 76 | 104 | 6.1 | 14.8 | 0.00 | 0.00 | 0.00 | 69 | 1014.8 |
| 20260504214351 | 76 | 68 | 6.1 | 13.9 | 0.00 | 0.00 | 0.00 | 69 | 1014.8 |
| 20260504212223 | 76 | 59 | 6.1 | 14.8 | 0.00 | 0.00 | 0.00 | 68 | 1015.0 |
| 20260504210042 | 76 | 96 | 6.1 | 13.0 | 0.00 | 0.00 | 0.00 | 67 | 1015.1 |
| 20260504205052 | 77 | 49 | 7.0 | 13.0 | 0.00 | 0.00 | 0.00 | 66 | 1015.1 |
| 20260504204043 | 77 | 79 | 7.0 | 13.9 | 0.00 | 0.00 | 0.00 | 66 | 1015.1 |
| 20260504201913 | 76 | 102 | 7.0 | 14.8 | 0.00 | 0.00 | 0.00 | 66 | 1015.3 |
| 20260504195652 | 76 | 38 | 6.1 | 13.0 | 0.00 | 0.00 | 0.00 | 67 | 1015.3 |
| 20260504194631 | 76 | 65 | 7.0 | 13.0 | 0.00 | 0.00 | 0.00 | 66 | 1015.5 |
| 20260504193628 | 76 | 51 | 6.1 | 14.8 | 0.00 | 0.00 | 0.00 | 67 | 1015.8 |
| 20260504192634 | 77 | 39 | 7.0 | 14.8 | 0.00 | 0.00 | 0.00 | 66 | 1016.0 |
| 20260504191613 | 77 | 51 | 7.0 | 13.0 | 0.00 | 0.00 | 0.00 | 65 | 1016.0 |
| 20260504190538 | 78 | 65 | 7.8 | 16.5 | 0.00 | 0.00 | 0.00 | 64 | 1016.1 |
| 20260504185506 | 78 | 46 | 7.0 | 14.8 | 0.00 | 0.00 | 0.00 | 66 | 1016.2 |
| 20260504183251 | 78 | 80 | 7.8 | 15.6 | 0.00 | 0.00 | 0.00 | 65 | 1016.3 |
| 20260504182227 | 79 | 84 | 6.1 | 15.6 | 0.00 | 0.00 | 0.00 | 65 | 1016.4 |
| 20260504180010 | 79 | 49 | 6.1 | 15.6 | 0.00 | 0.00 | 0.00 | 63 | 1016.5 |
| 20260504175019 | 78 | 16 | 7.8 | 15.6 | 0.00 | 0.00 | 0.00 | 64 | 1016.6 |
| 20260504172921 | 78 | 60 | 7.8 | 13.9 | 0.00 | 0.00 | 0.00 | 64 | 1016.7 |
| 20260504171912 | 78 | 49 | 7.0 | 14.8 | 0.00 | 0.00 | 0.00 | 65 | 1016.7 |
| 20260504170907 | 78 | 43 | 7.0 | 14.8 | 0.00 | 0.00 | 0.00 | 64 | 1016.8 |
| 20260504150607 | 78 | 25 | 7.8 | 15.6 | 0.00 | 0.00 | 0.00 | 63 | 1017.2 |
| 20260504140501 | 76 | 86 | 7.8 | 16.5 | 0.00 | 0.00 | 0.00 | 65 | 1016.6 |
| 20260504130326 | 76 | 5 | 7.0 | 13.0 | 0.00 | 0.00 | 0.00 | 65 | 1016.0 |
| 20260504120302 | 76 | 43 | 7.0 | 13.9 | 0.00 | 0.00 | 0.00 | 64 | 1015.4 |
| 20260504110137 | 75 | 355 | 8.7 | 15.6 | 0.00 | 0.00 | 0.00 | 67 | 1014.9 |
| 20260504081755 | 75 | 22 | 5.2 | 13.0 | 0.00 | 0.03 | 0.00 | 70 | 1014.3 |
| 20260504080746 | 75 | 39 | 6.1 | 12.2 | 0.00 | 0.03 | 0.00 | 69 | 1014.1 |